Portada
METAR-TAF:

METAR-TAF

Aeroports :

Oswego County Airport

Fulton, Nova York, Estats Units d'Amèrica

latitud: 43-21-03N, longitud: 076-23-17W, altitud: 145 m

Observació

L'informe es va fer fa 41 minuts, a les 00:54 UTC
Vent calma
Temperatura -6°C
Humitat 62%
Pressió 1018 hPa
Visibilitat: 16.1 km
Cel cobert a una alçada de 9000 ft

METAR: KFZY 030054Z AUTO 00000KT 10SM OVC090 M06/M12 A3006 RMK AO2 SLP188 T10611122

Hora: 20:35 (01:35 UTC)


TAF: manca

Observacions i pronòstics meteorològics de més de 4000 aeroports (METAR i TAF).

Les estacions disponibles són els punts grocs i vermells al mapa.

Posi el ratolí al punt desitjat per veure el nom de l'estació.

Feu clic per veure les observacions i els pronòstics meteorològics.

Per canviar el mapa: feu clic els botons verds amb una creu de color negre per apropar; al botó verd amb un guió per allunyar la imatge; o en les fletxes verdes per a mapes adjacents.


METAR-TAF: